Location: Katowice
(50.2611°N, 19.0242°E)
Time: 01:18:47
(UTC+02:00)

OTV 5 (USA 277) - Visible Passes

Search period start: 21 June 2019 00:00
Search period end: 01 July 2019 00:00
Orbit: 310 x 325 km, 54.5° (Epoch: 08 May)

Date Brightness Start Highest point End Pass type
(mag) Time Alt. Az. Time Alt. Az. Time Alt. Az.
21 Jun ? 01:19:32 10° WNW 01:22:05 32° N 01:24:39 10° ENE visible
21 Jun ? 02:54:08 10° WNW 02:56:49 42° NNE 02:59:28 10° E visible
21 Jun ? 22:25:32 10° SSW 22:28:03 31° SE 22:30:34 10° ENE visible
21 Jun ? 23:59:36 10° W 00:02:19 49° NNW 00:05:01 10° ENE visible
22 Jun ? 01:34:28 10° WNW 01:37:01 31° N 01:39:33 10° ENE visible
22 Jun ? 03:08:52 10° WNW 03:11:39 68° NNE 03:14:23 10° ESE visible
22 Jun ? 22:39:57 10° SW 22:42:42 68° SSE 22:45:27 10° ENE visible
23 Jun ? 00:14:35 10° W 00:17:11 35° N 00:19:47 10° ENE visible
23 Jun ? 01:49:18 10° WNW 01:51:55 36° N 01:54:31 10° E visible
23 Jun ? 03:23:38 10° WNW 03:26:23 62° SSW 03:29:05 10° SE visible
23 Jun ? 22:54:41 10° WSW 22:57:27 63° NNW 23:00:13 10° ENE visible
24 Jun ? 00:29:33 10° WNW 00:32:06 31° N 00:34:38 10° ENE visible
24 Jun ? 02:04:03 10° WNW 02:06:47 52° NNE 02:09:30 10° E visible
24 Jun ? 03:38:33 10° W 03:41:01 28° SW 03:43:26 10° SSE visible
24 Jun ? 23:09:38 10° W 23:12:17 40° NNW 23:14:57 10° ENE visible
25 Jun ? 00:44:27 10° WNW 00:47:01 33° N 00:49:35 10° ENE visible
25 Jun ? 02:18:47 10° WNW 02:21:35 88° SSW 02:24:20 10° ESE visible
25 Jun ? 21:49:50 10° WSW 21:52:36 85° NNW 21:55:24 10° ENE visible
25 Jun ? 23:24:38 10° WNW 23:27:11 32° N 23:29:45 10° ENE visible
26 Jun ? 00:59:14 10° WNW 01:01:55 42° NNE 01:04:34 10° E visible
26 Jun ? 02:33:37 10° WNW 02:36:15 41° SW 02:38:52 10° SE visible
26 Jun ? 22:04:42 10° W 22:07:24 49° NNW 22:10:07 10° ENE visible
26 Jun ? 23:39:34 10° WNW 23:42:06 31° N 23:44:39 10° ENE visible
27 Jun ? 01:13:58 10° WNW 01:16:45 69° NNE 01:19:29 10° ESE visible
27 Jun ? 02:48:42 10° W 02:50:16 19° WSW 02:50:16 19° WSW visible
27 Jun ? 22:19:40 10° W 22:22:16 35° N 22:24:53 10° ENE visible
27 Jun ? 23:54:24 10° WNW 23:57:01 37° N 23:59:38 10° E visible
28 Jun ? 01:28:44 10° WNW 01:31:29 61° SSW 01:31:44 57° S visible
28 Jun ? 22:34:39 10° WNW 22:37:11 31° N 22:39:44 10° ENE visible
29 Jun ? 00:09:09 10° WNW 00:11:53 52° NNE 00:13:53 16° E visible
29 Jun ? 01:43:39 10° W 01:44:43 18° W 01:44:43 18° W visible
29 Jun ? 22:49:32 10° WNW 22:52:07 33° N 22:54:41 10° ENE visible
30 Jun ? 00:23:53 10° WNW 00:26:40 87° SW 00:27:11 55° ESE visible
30 Jun ? 23:04:20 10° WNW 23:07:00 43° NNE 23:09:40 10° E visible
